SCP
0 0 0 0 0 0 0 0 0 0 0 0 0 0 0 0 0 0 0 0 1 1 1 1 1 1 1 1 1 1 1 1 1 1 0 0 0 0 0 0 0 0 0 0
0 0 0 0 0 0 0 0 0 0 0 0 0 0 0 0 0 0 0 0 1 1 1 1 1 1 1 1 1 1 1 1 1 1 0 0 0 0 0 0 0 0 0 0
0 0 0 0 0 0 0 0 0 0 0 0 0 0 0 0 0 0 0 0 0 1 1 1 1 1 1 1 1 1 1 1 1 1 0 0 0 0 0 0 0 0 0 0
0 0 0 0 0 0 0 0 0 0 0 0 0 0 0 0 0 0 0 0 0 1 1 1 1 1 1 1 1 1 1 1 1 1 0 0 0 0 0 0 0 0 0 0
0 0 0 0 0 0 0 0 0 0 0 0 0 0 0 0 0 0 0 0 0 0 1 1 1 1 1 1 1 1 1 1 1 1 0 0 0 0 0 0 0 0 0 0
0 0 0 0 0 0 0 0 0 0 0 0 0 0 0 0 0 0 0 0 0 0 1 1 1 1 1 1 1 1 1 1 1 1 0 0 0 0 0 0 0 0 0 0
0 0 0 0 0 0 0 0 0 0 0 0 0 0 0 0 0 0 0 0 0 0 1 1 1 1 1 1 1 1 1 1 1 0 0 0 0 0 0 0 0 0 0 0
0 0 0 0 0 0 0 0 0 0 0 0 0 0 0 0 0 0 0 0 0 0 1 1 1 1 1 1 1 1 1 1 0 0 0 0 0 0 0 0 0 0 0 0
0 0 0 0 0 0 0 0 0 0 0 0 0 0 0 0 0 0 0 0 0 1 1 1 1 1 1 1 1 1 1 0 0 0 0 0 0 0 0 0 0 0 0 0
0 0 0 0 0 0 0 0 0 0 0 0 0 0 0 0 0 0 0 0 0 1 1 1 1 1 1 1 1 1 1 0 0 0 0 0 0 0 0 0 0 0 0 0
0 0 0 0 0 0 0 0 0 0 0 0 0 0 0 0 0 0 0 0 0 1 1 1 1 1 1 1 1 1 1 0 0 0 0 0 0 0 0 0 0 0 0 0
0 0 0 0 0 0 0 0 0 0 0 0 0 0 0 0 0 0 0 0 0 1 1 1 1 1 1 1 1 1 1 0 0 0 0 0 0 0 0 0 0 0 0 0
0 0 0 0 0 0 0 0 0 0 0 0 0 0 0 0 0 0 0 0 0 1 1 1 1 1 1 1 1 1 0 0 0 0 0 0 0 0 0 0 0 0 0 0
0 0 0 0 0 0 0 0 0 0 0 0 0 0 0 0 0 0 0 0 1 1 1 1 1 1 1 1 1 1 0 0 0 0 0 0 0 0 0 0 0 0 0 0
0 0 0 0 0 0 0 0 0 0 0 0 0 0 0 0 0 0 0 0 1 1 1 1 1 1 1 1 1 1 1 0 0 0 0 0 0 0 0 0 0 0 0 0
0 0 0 0 0 0 0 0 0 0 0 0 0 0 0 0 0 0 0 0 1 1 1 1 1 1 1 1 1 1 1 1 1 0 0 0 0 0 0 0 0 0 0 0
0 0 0 0 0 0 0 0 0 0 0 0 0 0 0 0 0 0 0 0 1 1 1 1 1 1 1 1 1 1 1 1 1 1 0 0 0 0 0 0 0 0 0 0
0 0 0 0 0 0 0 0 0 0 0 0 0 0 0 0 0 0 0 1 1 1 1 1 2 2 2 2 1 1 1 1 1 1 1 1 0 0 0 0 0 0 0 0
0 0 0 0 0 0 0 0 0 0 0 0 0 0 0 0 0 0 1 1 1 1 1 2 2 2 2 2 2 1 1 1 1 1 1 1 1 0 0 0 0 0 0 0
0 0 0 0 0 0 0 0 0 0 0 0 0 0 1 1 1 1 1 1 1 1 2 2 2 2 2 2 2 2 2 1 1 1 1 1 1 0 0 0 0 0 0 0
0 0 0 0 0 0 0 0 0 0 1 1 1 1 1 1 1 1 1 1 2 2 2 2 2 2 2 2 2 2 2 1 1 1 1 1 1 0 0 0 0 0 0 0
0 0 0 0 0 0 0 0 1 1 1 1 1 1 1 1 1 1 1 2 2 2 2 2 2 2 2 2 2 2 2 1 1 1 1 1 1 0 0 0 0 0 0 0
0 0 0 0 0 0 1 1 1 1 1 1 1 1 1 1 1 1 2 2 2 2 2 2 2 2 2 1 1 1 1 1 1 1 1 1 1 0 0 0 0 0 0 0
0 0 0 0 0 1 1 1 1 1 1 1 2 2 1 1 1 1 2 2 2 2 2 1 1 1 1 1 1 1 1 1 1 1 1 1 0 0 0 0 0 0 0 0
0 0 0 0 1 1 1 1 1 1 1 1 1 1 1 1 1 1 1 1 1 1 1 1 1 1 1 1 1 1 1 1 1 1 1 0 0 0 0 0 0 0 0 0
0 0 0 0 1 1 1 1 1 1 1 1 1 1 1 1 1 1 1 1 1 1 1 1 1 0 0 0 0 0 1 1 1 0 0 0 0 0 0 0 0 0 0 0
Wind_Speed
6 9 8 4 3 3 3 4 3 1 2 5 4 3 2 3 6 7 7 8 9 10 10 10 10 10 10 11 12 12 12 11 9 7 7 6 6 6 5 5 6 7 7 7
8 10 5 2 3 5 6 6 4 2 1 5 5 4 2 3 5 5 7 8 9 9 10 10 11 12 12 12 12 12 13 12 11 8 6 5 4 5 5 5 5 7 7 7
12 2 4 7 7 8 8 7 3 2 3 4 6 6 4 4 4 5 6 7 8 10 11 11 11 12 11 12 12 11 12 12 12 10 6 5 4 4 5 6 6 7 7 8
11 6 6 9 9 9 7 3 4 4 7 2 4 5 3 3 4 5 6 7 8 9 10 11 11 11 11 11 11 11 11 11 11 10 9 9 8 7 7 6 6 6 7 8
9 9 10 11 8 8 2 1 3 5 6 7 5 7 0 3 4 4 5 5 7 8 10 10 11 10 10 10 10 10 10 10 10 10 10 9 8 7 6 6 6 7 7 8
5 5 8 7 5 6 4 5 5 7 8 8 3 7 2 1 1 1 3 5 6 8 9 9 9 9 9 9 9 9 9 9 10 10 10 10 10 8 8 7 6 6 6 6
11 11 8 7 9 9 9 9 7 8 7 4 2 6 3 3 2 2 2 5 7 8 9 10 10 10 10 10 10 9 9 9 9 9 9 10 10 9 9 8 7 7 6 6
13 12 14 12 13 9 12 12 8 6 5 3 6 6 1 3 1 1 2 6 8 9 9 10 10 10 9 10 10 10 9 9 9 9 8 8 9 8 6 8 7 7 6 6
10 8 8 9 10 11 10 12 10 8 6 7 3 2 3 4 3 3 4 7 8 9 9 9 9 9 9 10 9 9 9 8 8 8 7 7 7 7 7 6 7 6 6 6
7 7 9 8 8 7 8 8 6 9 7 8 6 6 3 3 3 4 6 7 8 9 9 9 9 9 9 9 8 8 8 8 8 7 7 6 7 7 7 6 6 6 6 6
11 9 9 10 12 13 10 10 9 8 8 7 5 2 3 1 2 4 5 7 8 10 10 9 9 9 9 9 9 8 7 7 7 7 6 6 6 6 6 6 6 6 6 6
13 10 10 11 6 4 12 12 12 9 8 8 8 1 6 2 2 3 4 6 7 9 9 9 10 9 9 9 8 8 7 7 7 6 6 6 5 6 6 6 6 6 6 6
11 9 10 11 10 9 11 12 12 12 8 9 10 4 7 4 3 4 5 6 7 9 10 10 10 9 9 9 8 8 8 7 7 7 6 6 6 6 5 5 5 5 5 5
7 10 13 13 8 13 14 14 14 14 11 11 12 8 5 4 4 4 5 6 8 9 10 10 10 9 9 8 8 8 7 7 7 6 6 5 5 5 5 5 5 5 5 5
7 11 13 13 7 7 12 14 16 17 15 13 10 11 7 3 3 3 5 7 8 9 10 10 10 9 9 9 9 8 7 6 6 6 6 5 5 5 4 4 4 4 4 4
5 7 10 12 11 11 12 12 14 15 14 14 12 9 4 2 2 4 5 7 8 9 9 10 10 10 11 10 10 9 8 7 7 6 6 5 5 5 4 4 4 4 3 3
5 6 8 12 11 11 15 15 14 14 12 12 12 7 3 3 3 3 5 6 7 8 9 9 9 9 10 10 10 9 9 8 7 6 6 6 6 5 5 4 4 4 3 3
5 7 7 9 8 15 10 6 12 13 11 10 7 4 3 2 1 1 3 4 6 6 8 8 8 9 9 9 10 9 9 8 8 7 6 6 6 5 5 4 4 3 3 3
9 7 8 10 14 14 6 5 9 12 11 9 8 5 2 1 3 4 2 2 3 4 5 6 7 8 9 9 10 10 9 9 8 7 6 6 5 6 5 5 5 4 3 3
10 10 10 10 14 15 8 7 4 8 10 5 5 4 3 4 7 3 4 2 2 3 4 5 6 8 8 8 9 10 9 8 7 7 6 5 5 5 5 5 4 4 4 3
14 12 14 14 13 10 3 5 7 11 4 2 3 2 3 2 3 4 3 3 4 5 5 6 6 6 6 7 8 8 8 7 6 6 5 5 5 5 5 4 4 4 4 4
15 14 14 14 15 10 5 6 5 2 4 2 1 1 1 2 3 4 5 5 5 6 6 6 6 6 5 6 7 7 6 5 6 6 5 5 4 4 4 4 4 4 4 5
9 7 7 8 5 3 2 1 3 3 2 2 1 1 2 3 4 4 5 5 5 6 6 6 7 7 5 5 5 6 5 4 5 6 5 4 4 3 4 4 4 4 4 4
4 2 4 4 3 2 1 1 1 1 1 1 1 1 3 4 5 5 5 5 5 5 5 5 6 6 5 5 5 5 4 4 5 5 5 4 4 4 3 2 3 3 4 4
2 4 5 6 3 3 3 0 1 1 1 2 2 2 3 4 5 5 5 5 5 4 4 5 5 5 5 4 5 4 4 4 4 4 4 4 4 4 3 2 1 1 1 1
4 4 5 3 1 2 0 1 0 1 2 2 3 4 4 5 5 5 5 5 4 4 5 5 5 5 4 4 4 3 2 3 4 4 4 3 3 3 3 3 3 7 5 4
Wind_Direction
200 227 222 214 248 305 292 270 262 17 359 292 283 285 223 201 210 204 194 185 186 190 183 177 181 185 187 185 185 187 187 182 183 187 195 197 205 212 214 213 210 210 213 205
206 225 222 203 213 232 240 248 232 182 12 294 295 277 206 194 213 215 204 192 191 186 177 176 181 184 191 189 189 188 190 188 190 192 196 201 205 212 211 213 212 215 213 212
224 124 163 202 208 223 230 250 262 300 283 232 279 233 181 168 188 200 209 201 194 188 182 179 185 188 190 190 191 192 192 192 195 193 192 194 195 212 212 210 208 211 214 218
232 196 195 214 217 231 226 225 255 261 268 269 295 292 168 185 195 195 199 197 192 187 185 182 185 187 190 190 188 191 189 193 194 194 200 202 205 208 213 214 210 207 214 222
207 201 207 220 219 226 247 140 231 252 266 272 242 280 127 171 215 195 190 193 188 182 184 183 185 184 186 185 183 185 188 191 193 198 204 209 219 220 218 215 216 220 217 221
212 193 222 225 206 202 165 183 200 235 251 250 265 280 279 94 351 170 175 180 180 176 175 175 176 173 175 178 179 180 183 190 193 198 205 211 222 223 224 221 220 217 216 216
207 208 205 206 188 182 206 220 222 222 224 237 128 261 297 38 14 307 215 182 175 171 169 169 173 174 174 176 177 177 180 187 192 199 205 211 220 222 224 224 222 222 219 214
202 205 200 205 218 203 211 229 247 266 259 204 177 249 330 86 54 272 183 168 168 167 167 169 171 172 174 175 175 177 180 184 191 198 204 209 215 221 222 222 225 220 223 223
212 203 169 201 218 226 206 228 247 260 269 275 242 244 236 166 171 161 153 160 165 165 164 164 166 169 170 174 176 177 178 183 190 195 196 203 210 219 218 218 220 219 219 218
224 209 169 166 184 213 252 226 216 238 245 250 233 235 243 177 169 162 166 167 166 166 167 165 165 167 168 169 171 174 177 182 186 190 196 198 206 210 211 212 209 211 217 220
226 224 177 183 205 192 192 208 224 232 249 262 250 208 107 201 183 186 176 170 170 172 169 166 165 164 165 166 169 172 174 179 183 187 189 195 199 201 204 207 206 207 214 216
213 226 220 206 183 253 216 216 212 223 223 247 273 230 112 167 184 196 178 164 166 170 166 165 164 164 167 168 169 172 176 180 181 181 183 191 192 194 199 201 205 204 206 213
190 213 214 205 197 203 221 220 223 234 236 236 245 221 131 167 192 187 177 162 163 169 169 168 169 171 171 170 172 173 178 179 177 177 183 184 188 187 189 190 195 197 200 208
210 220 228 228 214 193 206 210 214 221 226 229 239 256 195 205 207 186 175 171 170 171 173 176 174 174 171 171 171 175 176 177 177 178 180 183 188 185 185 184 186 190 198 207
218 223 228 250 253 220 213 209 207 219 237 245 240 244 248 237 225 199 183 177 173 173 176 179 179 172 172 172 172 174 172 173 176 180 180 184 182 180 181 180 182 187 197 203
223 245 227 232 231 231 234 223 214 221 233 242 251 249 252 230 208 192 186 185 183 181 181 179 179 175 177 176 174 171 171 169 174 179 177 175 176 173 172 172 171 176 185 191
214 227 228 228 215 218 229 226 220 218 224 234 237 239 226 223 215 204 195 196 194 188 185 182 178 175 174 176 172 171 169 168 172 174 173 172 176 175 173 174 174 177 179 176
243 239 236 231 202 228 229 213 222 223 224 230 246 255 250 264 256 198 205 207 199 192 185 179 175 171 169 169 168 167 165 169 171 172 174 175 176 174 171 172 169 171 173 173
226 234 238 231 226 230 198 192 210 216 223 223 232 236 231 194 201 168 129 185 194 186 177 169 170 165 160 163 164 163 164 167 170 172 173 173 177 176 175 176 173 173 173 171
203 224 240 230 240 233 212 163 201 223 219 197 215 227 232 230 244 127 80 91 124 130 134 143 151 150 153 157 161 164 165 166 171 170 171 173 176 175 177 175 173 168 167 166
195 206 226 230 235 239 114 135 186 217 206 125 194 219 230 237 351 61 93 100 111 118 125 133 136 140 144 150 157 162 161 164 161 159 161 164 168 171 168 163 165 165 166 162
208 208 214 226 233 221 131 182 214 24 45 59 143 173 165 103 94 96 102 107 114 118 121 124 123 121 126 143 152 152 150 145 145 149 152 152 156 161 155 156 158 161 164 162
236 253 236 228 230 83 103 75 28 358 5 21 35 90 147 145 126 112 111 109 108 111 111 113 118 117 116 129 142 137 133 141 147 142 143 145 149 157 161 164 163 166 176 182
194 288 256 226 178 146 121 92 6 350 346 6 37 130 155 144 131 123 117 109 103 103 110 113 114 114 109 108 108 118 132 146 150 148 152 158 161 162 154 165 179 185 188 189
255 225 226 227 204 199 191 182 47 60 77 87 92 106 123 129 127 120 111 104 99 97 96 99 102 108 110 111 111 125 136 150 153 154 163 168 168 163 152 139 60 259 166 216
231 246 244 236 79 277 100 44 258 146 122 109 109 103 107 124 125 118 108 102 105 107 105 102 98 98 100 102 102 104 121 148 158 167 174 175 170 168 170 155 121 52 53 71